| time (UTC) | temp C | wind direction | speed KPH | gust KPH | rain 1hr cm | rain 24hr cm | rain mn cm | humidity % | barometer mb |
| 20260509031020 | 13 | 336 | 0.0 | 8.0 | 0.00 | 0.00 | 0.00 | 35 | 1003.7 |
| 20260509030520 | 13 | 351 | 0.0 | 8.0 | 0.00 | 0.00 | 0.00 | 34 | 1003.6 |
| 20260509030020 | 13 | 333 | 1.6 | 8.0 | 0.00 | 0.00 | 0.00 | 34 | 1003.6 |
| 20260509025519 | 13 | 354 | 1.6 | 6.4 | 0.00 | 0.00 | 0.00 | 34 | 1003.6 |
| 20260509025019 | 13 | 16 | 1.6 | 8.0 | 0.00 | 0.00 | 0.00 | 34 | 1003.5 |
| 20260509024519 | 13 | 10 | 0.0 | 9.7 | 0.00 | 0.00 | 0.00 | 34 | 1003.5 |
| 20260509024022 | 14 | 19 | 1.6 | 12.9 | 0.00 | 0.00 | 0.00 | 33 | 1003.4 |
| 20260509023519 | 14 | 4 | 4.8 | 12.9 | 0.00 | 0.00 | 0.00 | 33 | 1003.4 |
| 20260509023018 | 14 | 19 | 3.2 | 11.3 | 0.00 | 0.00 | 0.00 | 33 | 1003.4 |
| 20260509022518 | 15 | 352 | 4.8 | 11.3 | 0.00 | 0.00 | 0.00 | 33 | 1003.4 |
| 20260509022018 | 15 | 55 | 3.2 | 16.1 | 0.00 | 0.00 | 0.00 | 33 | 1003.4 |
| 20260509021520 | 15 | 1 | 6.4 | 17.7 | 0.00 | 0.00 | 0.00 | 33 | 1003.4 |
| 20260509021017 | 15 | 1 | 6.4 | 17.7 | 0.00 | 0.00 | 0.00 | 33 | 1003.4 |
| 20260509020516 | 15 | 345 | 6.4 | 17.7 | 0.00 | 0.00 | 0.00 | 33 | 1003.3 |
| 20260509020017 | 15 | 336 | 6.4 | 24.1 | 0.00 | 0.00 | 0.00 | 32 | 1003.3 |
| 20260509015520 | 15 | 340 | 9.7 | 24.1 | 0.00 | 0.00 | 0.00 | 32 | 1003.3 |
| 20260509015016 | 15 | 330 | 9.7 | 19.3 | 0.00 | 0.00 | 0.00 | 33 | 1003.2 |
| 20260509014533 | 16 | 8 | 9.7 | 17.7 | 0.00 | 0.00 | 0.00 | 33 | 1003.1 |
| 20260509014015 | 16 | 31 | 8.0 | 17.7 | 0.00 | 0.00 | 0.00 | 33 | 1002.9 |
| 20260509013517 | 16 | 101 | 6.4 | 19.3 | 0.00 | 0.00 | 0.00 | 32 | 1002.9 |
| 20260509013016 | 16 | 333 | 8.0 | 20.9 | 0.00 | 0.00 | 0.00 | 32 | 1002.8 |
| 20260509012515 | 16 | 322 | 8.0 | 22.5 | 0.00 | 0.00 | 0.00 | 32 | 1002.6 |
| 20260509012015 | 17 | 328 | 9.7 | 24.1 | 0.00 | 0.00 | 0.00 | 31 | 1002.5 |
| 20260509011515 | 17 | 334 | 11.3 | 24.1 | 0.00 | 0.00 | 0.00 | 31 | 1002.5 |
| 20260509011015 | 17 | 358 | 12.9 | 30.6 | 0.00 | 0.00 | 0.00 | 31 | 1002.4 |
| 20260509010514 | 17 | 321 | 9.7 | 30.6 | 0.00 | 0.00 | 0.00 | 30 | 1002.4 |
| 20260509010014 | 17 | 318 | 14.5 | 24.1 | 0.00 | 0.00 | 0.00 | 30 | 1002.3 |
| 20260509005516 | 18 | 345 | 11.3 | 25.7 | 0.00 | 0.00 | 0.00 | 30 | 1002.3 |
| 20260509005014 | 18 | 302 | 9.7 | 24.1 | 0.00 | 0.00 | 0.00 | 30 | 1002.2 |
| 20260509004515 | 18 | 312 | 9.7 | 27.4 | 0.00 | 0.00 | 0.00 | 29 | 1002.1 |
| 20260509004014 | 18 | 335 | 12.9 | 27.4 | 0.00 | 0.00 | 0.00 | 28 | 1002.1 |
| 20260509003513 | 18 | 316 | 8.0 | 22.5 | 0.00 | 0.00 | 0.00 | 28 | 1002.0 |
| 20260509003013 | 19 | 332 | 8.0 | 16.1 | 0.00 | 0.00 | 0.00 | 28 | 1001.9 |
| 20260509002513 | 19 | 349 | 3.2 | 19.3 | 0.00 | 0.00 | 0.00 | 28 | 1001.9 |
| 20260509002013 | 19 | 320 | 6.4 | 27.4 | 0.00 | 0.00 | 0.00 | 27 | 1001.9 |
| 20260509001512 | 19 | 335 | 14.5 | 27.4 | 0.00 | 0.00 | 0.00 | 26 | 1001.9 |
| 20260509001012 | 19 | 316 | 11.3 | 27.4 | 0.00 | 0.00 | 0.00 | 26 | 1001.9 |
| 20260509000511 | 19 | 276 | 9.7 | 33.8 | 0.00 | 0.00 | 0.00 | 25 | 1001.8 |
| 20260509000012 | 19 | 30 | 16.1 | 33.8 | 0.00 | 0.00 | 0.00 | 25 | 1001.8 |
| 20260508235515 | 20 | 297 | 8.0 | 29.0 | 0.00 | 0.00 | 0.00 | 25 | 1002.0 |
| 20260508235011 | 20 | 323 | 16.1 | 29.0 | 0.00 | 0.00 | 0.00 | 25 | 1001.8 |
| 20260508234510 | 20 | 303 | 12.9 | 30.6 | 0.00 | 0.00 | 0.00 | 25 | 1001.8 |
| 20260508234013 | 20 | 284 | 14.5 | 30.6 | 0.00 | 0.00 | 0.00 | 24 | 1001.8 |
| 20260508233514 | 20 | 299 | 9.7 | 27.4 | 0.00 | 0.00 | 0.00 | 24 | 1001.8 |
| 20260508233010 | 20 | 333 | 12.9 | 25.7 | 0.00 | 0.00 | 0.00 | 24 | 1001.9 |
| 20260508232508 | 20 | 26 | 11.3 | 32.2 | 0.00 | 0.00 | 0.00 | 25 | 1001.8 |
| 20260508232008 | 20 | 336 | 12.9 | 32.2 | 0.00 | 0.00 | 0.00 | 25 | 1001.8 |
| 20260508231508 | 19 | 312 | 14.5 | 29.0 | 0.00 | 0.00 | 0.00 | 25 | 1001.9 |
| 20260508231009 | 19 | 315 | 9.7 | 32.2 | 0.00 | 0.00 | 0.00 | 25 | 1001.9 |
| 20260508230507 | 20 | 273 | 11.3 | 32.2 | 0.00 | 0.00 | 0.00 | 24 | 1002.0 |
| 20260508230006 | 20 | 320 | 9.7 | 22.5 | 0.00 | 0.00 | 0.00 | 25 | 1001.8 |
| 20260508225506 | 20 | 299 | 8.0 | 27.4 | 0.00 | 0.00 | 0.00 | 25 | 1001.8 |
| 20260508225005 | 20 | 319 | 12.9 | 27.4 | 0.00 | 0.00 | 0.00 | 24 | 1001.8 |
| 20260508224505 | 21 | 328 | 11.3 | 25.7 | 0.00 | 0.00 | 0.00 | 25 | 1001.8 |
| 20260508224003 | 20 | 16 | 6.4 | 30.6 | 0.00 | 0.00 | 0.00 | 25 | 1001.7 |
| 20260508223504 | 20 | 291 | 6.4 | 38.6 | 0.00 | 0.00 | 0.00 | 26 | 1001.8 |
| 20260508223005 | 20 | 262 | 20.9 | 38.6 | 0.00 | 0.00 | 0.00 | 25 | 1001.8 |
| 20260508222501 | 20 | 255 | 14.5 | 32.2 | 0.00 | 0.00 | 0.00 | 26 | 1001.8 |
| 20260508222003 | 21 | 333 | 8.0 | 43.5 | 0.00 | 0.00 | 0.00 | 25 | 1001.9 |
| 20260508221600 | 20 | 273 | 20.9 | 43.5 | 0.00 | 0.00 | 0.00 | 25 | 1001.8 |
| 20260508221100 | 21 | 311 | 11.3 | 24.1 | 0.00 | 0.00 | 0.00 | 25 | 1001.8 |
| 20260508220600 | 21 | 20 | 9.7 | 20.9 | 0.00 | 0.00 | 0.00 | 24 | 1001.9 |
| 20260508220120 | 21 | 144 | 4.8 | 22.5 | 0.00 | 0.00 | 0.00 | 27 | 1001.9 |
| 20260508215557 | 20 | 316 | 11.3 | 25.7 | 0.00 | 0.00 | 0.00 | 26 | 1002.0 |
| 20260508215057 | 20 | 326 | 9.7 | 33.8 | 0.00 | 0.00 | 0.00 | 26 | 1002.0 |
| 20260508214558 | 20 | 336 | 12.9 | 33.8 | 0.00 | 0.00 | 0.00 | 26 | 1001.9 |
| 20260508214056 | 20 | 323 | 9.7 | 29.0 | 0.00 | 0.00 | 0.00 | 25 | 1002.0 |
| 20260508213554 | 20 | 332 | 12.9 | 29.0 | 0.00 | 0.00 | 0.00 | 25 | 1002.2 |
| 20260508213056 | 20 | 15 | 4.8 | 35.4 | 0.00 | 0.00 | 0.00 | 27 | 1002.2 |
| 20260508212554 | 20 | 330 | 12.9 | 35.4 | 0.00 | 0.00 | 0.00 | 27 | 1002.3 |
| 20260508212055 | 20 | 307 | 19.3 | 33.8 | 0.00 | 0.00 | 0.00 | 26 | 1002.2 |
| 20260508211553 | 20 | 277 | 17.7 | 33.8 | 0.00 | 0.00 | 0.00 | 26 | 1002.2 |
| 20260508211051 | 20 | 304 | 8.0 | 20.9 | 0.00 | 0.00 | 0.00 | 26 | 1002.5 |
| 20260508210551 | 20 | 337 | 8.0 | 27.4 | 0.00 | 0.00 | 0.00 | 26 | 1002.4 |
| 20260508210051 | 20 | 333 | 11.3 | 33.8 | 0.00 | 0.00 | 0.00 | 26 | 1002.5 |
| 20260508205550 | 19 | 307 | 19.3 | 33.8 | 0.00 | 0.00 | 0.00 | 28 | 1002.4 |
| 20260508205050 | 19 | 316 | 11.3 | 27.4 | 0.00 | 0.00 | 0.00 | 26 | 1002.7 |
| 20260508204600 | 20 | 266 | 16.1 | 25.7 | 0.00 | 0.00 | 0.00 | 25 | 1002.7 |
| 20260508204050 | 20 | 336 | 4.8 | 30.6 | 0.00 | 0.00 | 0.00 | 26 | 1002.8 |
| 20260508203547 | 20 | 328 | 16.1 | 30.6 | 0.00 | 0.00 | 0.00 | 29 | 1002.9 |
| 20260508203048 | 20 | 283 | 8.0 | 19.3 | 0.00 | 0.00 | 0.00 | 25 | 1002.9 |
| 20260508202545 | 20 | 279 | 8.0 | 19.3 | 0.00 | 0.00 | 0.00 | 26 | 1003.1 |
| 20260508202048 | 20 | 301 | 8.0 | 27.4 | 0.00 | 0.00 | 0.00 | 26 | 1003.3 |
| 20260508201546 | 20 | 217 | 11.3 | 27.4 | 0.00 | 0.00 | 0.00 | 26 | 1003.3 |
| 20260508201041 | 20 | 273 | 17.7 | 27.4 | 0.00 | 0.00 | 0.00 | 24 | 1003.3 |
| 20260508200541 | 19 | 56 | 6.4 | 17.7 | 0.00 | 0.00 | 0.00 | 26 | 1003.4 |
| 20260508200140 | 19 | 294 | 6.4 | 29.0 | 0.00 | 0.00 | 0.00 | 26 | 1003.6 |
| 20260508195539 | 19 | 293 | 16.1 | 29.0 | 0.00 | 0.00 | 0.00 | 25 | 1003.7 |
| 20260508195038 | 19 | 287 | 14.5 | 32.2 | 0.00 | 0.00 | 0.00 | 25 | 1003.7 |
| 20260508194539 | 19 | 274 | 22.5 | 32.2 | 0.00 | 0.00 | 0.00 | 26 | 1003.9 |
| 20260508194036 | 19 | 12 | 8.0 | 17.7 | 0.00 | 0.00 | 0.00 | 27 | 1004.0 |
| 20260508193538 | 18 | 250 | 4.8 | 22.5 | 0.00 | 0.00 | 0.00 | 27 | 1004.0 |
| 20260508193034 | 18 | 283 | 12.9 | 25.7 | 0.00 | 0.00 | 0.00 | 26 | 1004.1 |
| 20260508192533 | 18 | 23 | 9.7 | 25.7 | 0.00 | 0.00 | 0.00 | 27 | 1004.1 |
| 20260508192034 | 18 | 270 | 6.4 | 25.7 | 0.00 | 0.00 | 0.00 | 25 | 1004.2 |
| 20260508191533 | 18 | 278 | 8.0 | 29.0 | 0.00 | 0.00 | 0.00 | 25 | 1004.3 |
| 20260508191033 | 18 | 22 | 11.3 | 29.0 | 0.00 | 0.00 | 0.00 | 24 | 1004.4 |
| 20260508190534 | 18 | 300 | 6.4 | 22.5 | 0.00 | 0.00 | 0.00 | 25 | 1004.5 |
| 20260508190034 | 18 | 270 | 11.3 | 22.5 | 0.00 | 0.00 | 0.00 | 25 | 1004.4 |
| 20260508185532 | 18 | 290 | 4.8 | 22.5 | 0.00 | 0.00 | 0.00 | 25 | 1004.6 |
| 20260508185028 | 18 | 288 | 11.3 | 22.5 | 0.00 | 0.00 | 0.00 | 25 | 1004.7 |
| 20260508184539 | 18 | 270 | 12.9 | 25.7 | 0.00 | 0.00 | 0.00 | 26 | 1004.7 |
| 20260508184029 | 18 | 270 | 14.5 | 30.6 | 0.00 | 0.00 | 0.00 | 27 | 1004.8 |
| 20260508183526 | 18 | 290 | 20.9 | 30.6 | 0.00 | 0.00 | 0.00 | 25 | 1004.7 |
| 20260508183026 | 18 | 326 | 8.0 | 30.6 | 0.00 | 0.00 | 0.00 | 25 | 1004.9 |
| 20260508182528 | 18 | 279 | 14.5 | 24.1 | 0.00 | 0.00 | 0.00 | 27 | 1004.8 |
| 20260508182024 | 18 | 280 | 8.0 | 17.7 | 0.00 | 0.00 | 0.00 | 26 | 1005.0 |
| 20260508181532 | 17 | 290 | 6.4 | 14.5 | 0.00 | 0.00 | 0.00 | 27 | 1005.1 |
| 20260508181022 | 18 | 276 | 6.4 | 19.3 | 0.00 | 0.00 | 0.00 | 27 | 1005.2 |
| 20260508180522 | 18 | 295 | 11.3 | 24.1 | 0.00 | 0.00 | 0.00 | 27 | 1005.2 |
| 20260508180022 | 18 | 271 | 9.7 | 24.1 | 0.00 | 0.00 | 0.00 | 26 | 1005.2 |
| 20260508175522 | 18 | 328 | 6.4 | 20.9 | 0.00 | 0.00 | 0.00 | 28 | 1005.4 |
| 20260508175019 | 17 | 315 | 4.8 | 17.7 | 0.00 | 0.00 | 0.00 | 27 | 1005.4 |
| 20260508174530 | 18 | 287 | 9.7 | 17.7 | 0.00 | 0.00 | 0.00 | 25 | 1005.6 |
| 20260508174019 | 17 | 311 | 6.4 | 17.7 | 0.00 | 0.00 | 0.00 | 26 | 1005.6 |
| 20260508173517 | 17 | 278 | 6.4 | 20.9 | 0.00 | 0.00 | 0.00 | 27 | 1005.7 |
| 20260508173016 | 17 | 330 | 6.4 | 22.5 | 0.00 | 0.00 | 0.00 | 27 | 1005.8 |
| 20260508172514 | 17 | 274 | 12.9 | 20.9 | 0.00 | 0.00 | 0.00 | 26 | 1005.9 |
| 20260508172015 | 17 | 256 | 6.4 | 14.5 | 0.00 | 0.00 | 0.00 | 26 | 1006.0 |
| 20260508171512 | 17 | 349 | 3.2 | 17.7 | 0.00 | 0.00 | 0.00 | 26 | 1006.1 |
| 20260508171012 | 17 | 26 | 9.7 | 20.9 | 0.00 | 0.00 | 0.00 | 27 | 1006.3 |
| 20260508170510 | 17 | 26 | 8.0 | 22.5 | 0.00 | 0.00 | 0.00 | 27 | 1006.3 |
| 20260508170010 | 17 | 269 | 6.4 | 20.9 | 0.00 | 0.00 | 0.00 | 27 | 1006.3 |
| 20260508165508 | 17 | 281 | 6.4 | 17.7 | 0.00 | 0.00 | 0.00 | 27 | 1006.4 |
| 20260508165007 | 17 | 343 | 3.2 | 19.3 | 0.00 | 0.00 | 0.00 | 28 | 1006.4 |
| 20260508164507 | 16 | 328 | 8.0 | 19.3 | 0.00 | 0.00 | 0.00 | 28 | 1006.5 |
| 20260508164006 | 16 | 360 | 8.0 | 12.9 | 0.00 | 0.00 | 0.00 | 30 | 1006.6 |
| 20260508163504 | 16 | 337 | 3.2 | 11.3 | 0.00 | 0.00 | 0.00 | 30 | 1006.6 |
| 20260508163003 | 16 | 297 | 4.8 | 11.3 | 0.00 | 0.00 | 0.00 | 31 | 1006.7 |
| 20260508162503 | 16 | 281 | 4.8 | 9.7 | 0.00 | 0.00 | 0.00 | 30 | 1006.8 |
| 20260508162001 | 16 | 338 | 0.0 | 22.5 | 0.00 | 0.00 | 0.00 | 33 | 1006.7 |
| 20260508161502 | 15 | 298 | 9.7 | 22.5 | 0.00 | 0.00 | 0.00 | 31 | 1006.7 |
| 20260508161101 | 15 | 298 | 6.4 | 19.3 | 0.00 | 0.00 | 0.00 | 32 | 1006.7 |
| 20260508160603 | 15 | 323 | 4.8 | 17.7 | 0.00 | 0.00 | 0.00 | 32 | 1006.8 |
| 20260508160104 | 15 | 285 | 8.0 | 17.7 | 0.00 | 0.00 | 0.00 | 33 | 1007.0 |
| 20260508155556 | 15 | 294 | 8.0 | 17.7 | 0.00 | 0.00 | 0.00 | 34 | 1007.0 |
| 20260508155055 | 14 | 318 | 4.8 | 16.1 | 0.00 | 0.00 | 0.00 | 37 | 1007.1 |
| 20260508154554 | 14 | 288 | 8.0 | 16.1 | 0.00 | 0.00 | 0.00 | 36 | 1007.1 |
| 20260508154052 | 13 | 315 | 8.0 | 19.3 | 0.00 | 0.00 | 0.00 | 37 | 1007.1 |
| 20260508153551 | 13 | 278 | 11.3 | 19.3 | 0.00 | 0.00 | 0.00 | 37 | 1007.3 |
| 20260508153051 | 13 | 271 | 9.7 | 17.7 | 0.00 | 0.00 | 0.00 | 37 | 1007.2 |
| 20260508152551 | 12 | 250 | 8.0 | 19.3 | 0.00 | 0.00 | 0.00 | 39 | 1007.3 |
| 20260508152047 | 12 | 297 | 11.3 | 19.3 | 0.00 | 0.00 | 0.00 | 39 | 1007.3 |
| 20260508151547 | 12 | 281 | 8.0 | 17.7 | 0.00 | 0.00 | 0.00 | 39 | 1007.4 |
| 20260508151046 | 12 | 280 | 9.7 | 19.3 | 0.00 | 0.00 | 0.00 | 41 | 1007.5 |
| 20260508150543 | 12 | 273 | 8.0 | 19.3 | 0.00 | 0.00 | 0.00 | 40 | 1007.5 |
| 20260508150043 | 12 | 278 | 11.3 | 19.3 | 0.00 | 0.00 | 0.00 | 41 | 1007.6 |
| 20260508145542 | 11 | 282 | 12.9 | 20.9 | 0.00 | 0.00 | 0.00 | 41 | 1007.7 |
| 20260508145041 | 11 | 260 | 12.9 | 25.7 | 0.00 | 0.00 | 0.00 | 41 | 1007.6 |
| 20260508144541 | 11 | 287 | 16.1 | 25.7 | 0.00 | 0.00 | 0.00 | 41 | 1007.7 |
| 20260508144040 | 11 | 281 | 16.1 | 24.1 | 0.00 | 0.00 | 0.00 | 42 | 1007.8 |
| 20260508143540 | 11 | 284 | 16.1 | 25.7 | 0.00 | 0.00 | 0.00 | 43 | 1007.7 |
| 20260508143040 | 11 | 269 | 16.1 | 30.6 | 0.00 | 0.00 | 0.00 | 41 | 1007.8 |
| 20260508142540 | 11 | 285 | 17.7 | 30.6 | 0.00 | 0.00 | 0.00 | 41 | 1007.7 |
| 20260508142040 | 11 | 270 | 14.5 | 24.1 | 0.00 | 0.00 | 0.00 | 40 | 1007.8 |
| 20260508141545 | 11 | 284 | 14.5 | 20.9 | 0.00 | 0.00 | 0.00 | 42 | 1007.8 |
| 20260508141036 | 11 | 261 | 8.0 | 20.9 | 0.00 | 0.00 | 0.00 | 43 | 1007.8 |
| 20260508140535 | 11 | 269 | 8.0 | 11.3 | 0.00 | 0.00 | 0.00 | 44 | 1007.9 |
| 20260508140037 | 10 | 267 | 3.2 | 11.3 | 0.00 | 0.00 | 0.00 | 48 | 1008.0 |
| 20260508135533 | 10 | 314 | 1.6 | 16.1 | 0.00 | 0.00 | 0.00 | 48 | 1008.1 |
| 20260508135032 | 10 | 281 | 6.4 | 17.7 | 0.00 | 0.00 | 0.00 | 46 | 1008.2 |
| 20260508134534 | 10 | 294 | 9.7 | 17.7 | 0.00 | 0.00 | 0.00 | 46 | 1008.4 |
| 20260508134030 | 10 | 294 | 1.6 | 8.0 | 0.00 | 0.00 | 0.00 | 49 | 1008.4 |
| 20260508133530 | 9 | 318 | 3.2 | 9.7 | 0.00 | 0.00 | 0.00 | 48 | 1008.4 |
| 20260508133029 | 9 | 312 | 4.8 | 9.7 | 0.00 | 0.00 | 0.00 | 50 | 1008.3 |
| 20260508132529 | 9 | 270 | 0.0 | 6.4 | 0.00 | 0.00 | 0.00 | 51 | 1008.4 |
| 20260508132026 | 8 | 274 | 3.2 | 6.4 | 0.00 | 0.00 | 0.00 | 52 | 1008.3 |
| 20260508131525 | 8 | 288 | 0.0 | 4.8 | 0.00 | 0.00 | 0.00 | 54 | 1008.3 |
| 20260508131024 | 8 | 231 | 0.0 | 1.6 | 0.00 | 0.00 | 0.00 | 56 | 1008.3 |
| 20260508130521 | 8 | 228 | 0.0 | 1.6 | 0.00 | 0.00 | 0.00 | 56 | 1008.3 |
| 20260508130020 | 7 | 341 | 0.0 | 1.6 | 0.00 | 0.00 | 0.00 | 56 | 1008.4 |
| 20260508125519 | 7 | 281 | 0.0 | 4.8 | 0.00 | 0.00 | 0.00 | 56 | 1008.4 |
| 20260508125018 | 7 | 297 | 0.0 | 4.8 | 0.00 | 0.00 | 0.00 | 55 | 1008.3 |
| 20260508124519 | 7 | 270 | 0.0 | 4.8 | 0.00 | 0.00 | 0.00 | 56 | 1008.3 |
| 20260508124018 | 7 | 273 | 1.6 | 4.8 | 0.00 | 0.00 | 0.00 | 55 | 1008.3 |
| 20260508123522 | 7 | 273 | 0.0 | 4.8 | 0.00 | 0.00 | 0.00 | 57 | 1008.3 |
| 20260508123024 | 6 | 276 | 0.0 | 4.8 | 0.00 | 0.00 | 0.00 | 56 | 1008.4 |
| 20260508122517 | 6 | 283 | 1.6 | 4.8 | 0.00 | 0.00 | 0.00 | 59 | 1008.4 |
| 20260508122016 | 6 | 283 | 1.6 | 4.8 | 0.00 | 0.00 | 0.00 | 57 | 1008.4 |
| 20260508121519 | 6 | 288 | 0.0 | 4.8 | 0.00 | 0.00 | 0.00 | 56 | 1008.3 |
| 20260508121015 | 6 | 276 | 1.6 | 4.8 | 0.00 | 0.00 | 0.00 | 55 | 1008.3 |
| 20260508120515 | 5 | 282 | 1.6 | 4.8 | 0.00 | 0.00 | 0.00 | 55 | 1008.3 |
| 20260508120015 | 5 | 286 | 1.6 | 4.8 | 0.00 | 0.00 | 0.00 | 55 | 1008.3 |
| 20260508115515 | 5 | 283 | 0.0 | 1.6 | 0.00 | 0.00 | 0.00 | 55 | 1008.3 |
| 20260508115014 | 4 | 290 | 0.0 | 1.6 | 0.00 | 0.00 | 0.00 | 56 | 1008.3 |
| 20260508114514 | 4 | 300 | 0.0 | 1.6 | 0.00 | 0.00 | 0.00 | 58 | 1008.2 |
| 20260508114018 | 3 | 27 | 0.0 | 0.0 | 0.00 | 0.00 | 0.00 | 59 | 1008.2 |
| 20260508113514 | 3 | 44 | 0.0 | 0.0 | 0.00 | 0.00 | 0.00 | 59 | 1008.2 |
| 20260508113016 | 3 | 48 | 0.0 | 0.0 | 0.00 | 0.00 | 0.00 | 60 | 1008.2 |
| 20260508112517 | 3 | 48 | 0.0 | 0.0 | 0.00 | 0.00 | 0.00 | 61 | 1008.2 |
| 20260508112012 | 3 | 48 | 0.0 | 0.0 | 0.00 | 0.00 | 0.00 | 61 | 1008.2 |
| 20260508111512 | 3 | 49 | 0.0 | 0.0 | 0.00 | 0.00 | 0.00 | 60 | 1008.1 |
| 20260508111010 | 3 | 49 | 0.0 | 0.0 | 0.00 | 0.00 | 0.00 | 58 | 1008.1 |
| 20260508110509 | 3 | 271 | 0.0 | 0.0 | 0.00 | 0.00 | 0.00 | 55 | 1008.2 |
| 20260508110015 | 3 | 271 | 0.0 | 0.0 | 0.00 | 0.00 | 0.00 | 54 | 1008.2 |
| 20260508105509 | 4 | 271 | 0.0 | 1.6 | 0.00 | 0.00 | 0.00 | 54 | 1008.2 |
| 20260508105006 | 4 | 252 | 0.0 | 3.2 | 0.00 | 0.00 | 0.00 | 55 | 1008.2 |
| 20260508104507 | 4 | 270 | 0.0 | 3.2 | 0.00 | 0.00 | 0.00 | 54 | 1008.3 |
| 20260508104004 | 4 | 276 | 0.0 | 4.8 | 0.00 | 0.00 | 0.00 | 54 | 1008.3 |
| 20260508103503 | 5 | 269 | 0.0 | 4.8 | 0.00 | 0.00 | 0.00 | 54 | 1008.3 |
| 20260508103002 | 5 | 270 | 1.6 | 3.2 | 0.00 | 0.00 | 0.00 | 54 | 1008.3 |
| 20260508102503 | 5 | 273 | 1.6 | 4.8 | 0.00 | 0.00 | 0.00 | 53 | 1008.4 |
| 20260508102002 | 5 | 273 | 3.2 | 6.4 | 0.00 | 0.00 | 0.00 | 53 | 1008.4 |
| 20260508101502 | 5 | 260 | 3.2 | 4.8 | 0.00 | 0.00 | 0.00 | 53 | 1008.3 |
| 20260508101002 | 5 | 255 | 3.2 | 6.4 | 0.00 | 0.00 | 0.00 | 53 | 1008.4 |
| 20260508100501 | 5 | 274 | 3.2 | 6.4 | 0.00 | 0.00 | 0.00 | 53 | 1008.4 |
| 20260508100105 | 5 | 262 | 3.2 | 9.7 | 0.00 | 0.00 | 0.00 | 53 | 1008.4 |
| 20260508095600 | 5 | 258 | 4.8 | 9.7 | 0.00 | 0.00 | 0.00 | 53 | 1008.4 |
| 20260508095502 | 5 | 260 | 3.2 | 9.7 | 0.00 | 0.00 | 0.00 | 53 | 1008.4 |
| 20260508095100 | 5 | 269 | 3.2 | 8.0 | 0.00 | 0.00 | 0.00 | 53 | 1008.4 |
| 20260508094616 | 5 | 267 | 3.2 | 8.0 | 0.00 | 0.00 | 0.00 | 53 | 1008.4 |
| 20260508094059 | 5 | 270 | 3.2 | 6.4 | 0.00 | 0.00 | 0.00 | 53 | 1008.5 |
| 20260508093602 | 5 | 260 | 1.6 | 4.8 | 0.00 | 0.00 | 0.00 | 53 | 1008.5 |
| 20260508093058 | 5 | 263 | 1.6 | 4.8 | 0.00 | 0.00 | 0.00 | 53 | 1008.5 |
| 20260508092557 | 5 | 260 | 1.6 | 6.4 | 0.00 | 0.00 | 0.00 | 53 | 1008.6 |
| 20260508092057 | 5 | 277 | 3.2 | 6.4 | 0.00 | 0.00 | 0.00 | 54 | 1008.6 |
| 20260508091559 | 5 | 270 | 1.6 | 3.2 | 0.00 | 0.00 | 0.00 | 54 | 1008.6 |
| 20260508091057 | 5 | 270 | 1.6 | 3.2 | 0.00 | 0.00 | 0.00 | 54 | 1008.6 |
| 20260508090557 | 5 | 257 | 1.6 | 4.8 | 0.00 | 0.00 | 0.00 | 54 | 1008.7 |
| 20260508090056 | 5 | 260 | 1.6 | 4.8 | 0.00 | 0.00 | 0.00 | 54 | 1008.7 |
| 20260508085556 | 5 | 262 | 3.2 | 4.8 | 0.00 | 0.00 | 0.00 | 54 | 1008.7 |
| 20260508085055 | 5 | 263 | 3.2 | 6.4 | 0.00 | 0.00 | 0.00 | 54 | 1008.6 |
| 20260508084555 | 5 | 259 | 3.2 | 6.4 | 0.00 | 0.00 | 0.00 | 54 | 1008.7 |
| 20260508084055 | 5 | 262 | 3.2 | 9.7 | 0.00 | 0.00 | 0.00 | 54 | 1008.6 |
| 20260508083553 | 5 | 250 | 3.2 | 9.7 | 0.00 | 0.00 | 0.00 | 54 | 1008.7 |
| 20260508083052 | 5 | 257 | 3.2 | 6.4 | 0.00 | 0.00 | 0.00 | 54 | 1008.8 |
| 20260508082551 | 5 | 243 | 3.2 | 6.4 | 0.00 | 0.00 | 0.00 | 53 | 1008.8 |
| 20260508082051 | 5 | 262 | 1.6 | 4.8 | 0.00 | 0.00 | 0.00 | 53 | 1008.8 |
| 20260508081610 | 5 | 248 | 3.2 | 6.4 | 0.00 | 0.00 | 0.00 | 53 | 1008.7 |
| 20260508081050 | 5 | 255 | 3.2 | 6.4 | 0.00 | 0.00 | 0.00 | 53 | 1008.8 |
| 20260508080549 | 5 | 256 | 3.2 | 4.8 | 0.00 | 0.00 | 0.00 | 53 | 1008.9 |
| 20260508080049 | 5 | 271 | 1.6 | 8.0 | 0.00 | 0.00 | 0.00 | 53 | 1008.9 |
| 20260508075548 | 5 | 260 | 3.2 | 8.0 | 0.00 | 0.00 | 0.00 | 53 | 1008.9 |
| 20260508075046 | 5 | 264 | 3.2 | 8.0 | 0.00 | 0.00 | 0.00 | 52 | 1008.9 |
| 20260508074546 | 5 | 249 | 3.2 | 8.0 | 0.00 | 0.00 | 0.00 | 52 | 1008.9 |
| 20260508074045 | 5 | 258 | 3.2 | 6.4 | 0.00 | 0.00 | 0.00 | 52 | 1008.9 |
| 20260508073545 | 5 | 250 | 4.8 | 6.4 | 0.00 | 0.00 | 0.00 | 52 | 1008.9 |
| 20260508073044 | 5 | 252 | 4.8 | 6.4 | 0.00 | 0.00 | 0.00 | 51 | 1008.9 |
| 20260508072542 | 5 | 265 | 3.2 | 6.4 | 0.00 | 0.00 | 0.00 | 51 | 1008.9 |
| 20260508072042 | 6 | 256 | 3.2 | 6.4 | 0.00 | 0.00 | 0.00 | 51 | 1008.9 |
| 20260508071545 | 6 | 261 | 3.2 | 8.0 | 0.00 | 0.00 | 0.00 | 51 | 1009.0 |
| 20260508071040 | 6 | 264 | 3.2 | 8.0 | 0.00 | 0.00 | 0.00 | 51 | 1009.0 |
| 20260508070539 | 6 | 269 | 1.6 | 4.8 | 0.00 | 0.00 | 0.00 | 50 | 1009.0 |
| 20260508070039 | 6 | 257 | 1.6 | 4.8 | 0.00 | 0.00 | 0.00 | 50 | 1009.1 |
| 20260508065538 | 6 | 256 | 1.6 | 6.4 | 0.00 | 0.00 | 0.00 | 50 | 1009.1 |
| 20260508065035 | 6 | 246 | 1.6 | 6.4 | 0.00 | 0.00 | 0.00 | 49 | 1009.1 |
| 20260508064535 | 6 | 259 | 0.0 | 4.8 | 0.00 | 0.00 | 0.00 | 49 | 1009.1 |
| 20260508064033 | 6 | 256 | 0.0 | 4.8 | 0.00 | 0.00 | 0.00 | 49 | 1009.2 |
| 20260508063534 | 6 | 267 | 0.0 | 4.8 | 0.00 | 0.00 | 0.00 | 48 | 1009.2 |
| 20260508063045 | 6 | 260 | 1.6 | 4.8 | 0.00 | 0.00 | 0.00 | 48 | 1009.2 |
| 20260508062532 | 6 | 269 | 1.6 | 3.2 | 0.00 | 0.00 | 0.00 | 47 | 1009.2 |
| 20260508062029 | 6 | 255 | 1.6 | 3.2 | 0.00 | 0.00 | 0.00 | 47 | 1009.2 |
| 20260508061530 | 6 | 255 | 1.6 | 3.2 | 0.00 | 0.00 | 0.00 | 47 | 1009.3 |
| 20260508061028 | 6 | 257 | 1.6 | 3.2 | 0.00 | 0.00 | 0.00 | 47 | 1009.4 |
| 20260508060527 | 6 | 263 | 0.0 | 3.2 | 0.00 | 0.00 | 0.00 | 47 | 1009.4 |
| 20260508060034 | 6 | 262 | 0.0 | 4.8 | 0.00 | 0.00 | 0.00 | 47 | 1009.4 |
| 20260508055526 | 6 | 255 | 3.2 | 4.8 | 0.00 | 0.00 | 0.00 | 47 | 1009.5 |
| 20260508055025 | 6 | 248 | 1.6 | 3.2 | 0.00 | 0.00 | 0.00 | 47 | 1009.5 |
| 20260508054525 | 6 | 255 | 0.0 | 1.6 | 0.00 | 0.00 | 0.00 | 46 | 1009.5 |
| 20260508054023 | 7 | 267 | 0.0 | 1.6 | 0.00 | 0.00 | 0.00 | 46 | 1009.5 |
| 20260508053523 | 7 | 257 | 0.0 | 1.6 | 0.00 | 0.00 | 0.00 | 46 | 1009.6 |
| 20260508053024 | 7 | 256 | 0.0 | 1.6 | 0.00 | 0.00 | 0.00 | 46 | 1009.6 |
| 20260508052524 | 7 | 255 | 0.0 | 1.6 | 0.00 | 0.00 | 0.00 | 45 | 1009.7 |
| 20260508052020 | 7 | 255 | 0.0 | 1.6 | 0.00 | 0.00 | 0.00 | 45 | 1009.7 |
| 20260508051522 | 7 | 257 | 0.0 | 1.6 | 0.00 | 0.00 | 0.00 | 45 | 1009.7 |
| 20260508051020 | 7 | 254 | 0.0 | 1.6 | 0.00 | 0.00 | 0.00 | 45 | 1009.7 |
| 20260508050518 | 7 | 267 | 0.0 | 0.0 | 0.00 | 0.00 | 0.00 | 45 | 1009.8 |
| 20260508050021 | 7 | 269 | 0.0 | 1.6 | 0.00 | 0.00 | 0.00 | 45 | 1009.8 |
| 20260508045517 | 7 | 269 | 0.0 | 1.6 | 0.00 | 0.00 | 0.00 | 45 | 1009.8 |
| 20260508045018 | 7 | 265 | 0.0 | 1.6 | 0.00 | 0.00 | 0.00 | 45 | 1009.9 |
| 20260508044620 | 7 | 267 | 0.0 | 1.6 | 0.00 | 0.00 | 0.00 | 44 | 1009.9 |
| 20260508044017 | 7 | 262 | 0.0 | 1.6 | 0.00 | 0.00 | 0.00 | 44 | 1010.0 |
| 20260508043517 | 7 | 262 | 0.0 | 3.2 | 0.00 | 0.00 | 0.00 | 44 | 1010.0 |
| 20260508043020 | 7 | 266 | 1.6 | 3.2 | 0.00 | 0.00 | 0.00 | 44 | 1010.1 |
| 20260508042519 | 7 | 262 | 0.0 | 1.6 | 0.00 | 0.00 | 0.00 | 44 | 1010.0 |
| 20260508042016 | 7 | 253 | 0.0 | 1.6 | 0.00 | 0.00 | 0.00 | 43 | 1010.1 |
| 20260508041517 | 7 | 250 | 0.0 | 3.2 | 0.00 | 0.00 | 0.00 | 43 | 1010.1 |
| 20260508041016 | 7 | 255 | 1.6 | 3.2 | 0.00 | 0.00 | 0.00 | 43 | 1010.1 |
| 20260508040515 | 7 | 249 | 0.0 | 3.2 | 0.00 | 0.00 | 0.00 | 43 | 1010.1 |
| 20260508040116 | 7 | 255 | 0.0 | 1.6 | 0.00 | 0.00 | 0.00 | 42 | 1010.1 |
| 20260508035515 | 8 | 262 | 0.0 | 1.6 | 0.00 | 0.00 | 0.00 | 42 | 1010.2 |
| 20260508035015 | 8 | 253 | 0.0 | 1.6 | 0.00 | 0.00 | 0.00 | 42 | 1010.2 |
| 20260508034515 | 8 | 252 | 0.0 | 1.6 | 0.00 | 0.00 | 0.00 | 42 | 1010.3 |
| 20260508034015 | 8 | 250 | 0.0 | 1.6 | 0.00 | 0.00 | 0.00 | 42 | 1010.3 |
| 20260508033514 | 8 | 245 | 0.0 | 1.6 | 0.00 | 0.00 | 0.00 | 41 | 1010.3 |
| 20260508033017 | 8 | 253 | 0.0 | 1.6 | 0.00 | 0.00 | 0.00 | 41 | 1010.3 |
| 20260508032518 | 8 | 256 | 0.0 | 0.0 | 0.00 | 0.00 | 0.00 | 40 | 1010.4 |
| 20260508032013 | 8 | 256 | 0.0 | 0.0 | 0.00 | 0.00 | 0.00 | 40 | 1010.3 |
| 20260508031514 | 8 | 256 | 0.0 | 0.0 | 0.00 | 0.00 | 0.00 | 40 | 1010.4 |